Time,TemperatureF,DewpointF,PressureIn,WindDirection,WindDirectionDegrees,WindSpeedMPH,WindSpeedGustMPH,Humidity,HourlyPrecipIn,Conditions,Clouds,dailyrainin,SolarRadiationWatts/m^2,SoftwareType,DateUTC
2013-04-15 00:00:00,59.6,34.6,29.70,SW,225,12.0,23.0,39,0.00,,,0.00,0,Wunderground v.1.15,2013-04-15 07:00:00,
2013-04-15 00:50:00,58.2,34.0,29.71,SE,128,0.0,23.0,40,0.00,,,0.00,0,Wunderground v.1.15,2013-04-15 07:50:00,
2013-04-15 01:00:00,57.3,34.4,29.70,SSE,149,0.0,23.0,42,0.00,,,0.00,0,Wunderground v.1.15,2013-04-15 08:00:00,
2013-04-15 01:10:00,56.8,33.9,29.70,SE,127,1.0,23.0,42,0.00,,,0.00,0,Wunderground v.1.15,2013-04-15 08:10:00,
2013-04-15 01:20:00,56.2,33.4,29.69,SSW,198,2.0,2.0,42,0.00,,,0.00,0,Wunderground v.1.15,2013-04-15 08:20:00,
2013-04-15 01:30:00,57.1,33.0,29.69,WSW,240,4.0,23.0,40,0.00,,,0.00,0,Wunderground v.1.15,2013-04-15 08:30:00,
2013-04-15 01:40:00,57.8,33.0,29.69,SSW,199,8.0,8.0,39,0.00,,,0.00,0,Wunderground v.1.15,2013-04-15 08:40:00,
2013-04-15 01:50:00,57.6,32.8,29.69,SSW,192,5.0,5.0,39,0.00,,,0.00,0,Wunderground v.1.15,2013-04-15 08:50:00,
2013-04-15 02:00:00,57.2,33.7,29.69,South,174,2.0,2.0,41,0.00,,,0.00,0,Wunderground v.1.15,2013-04-15 09:00:00,
2013-04-15 02:10:00,56.4,33.0,29.70,South,169,1.0,1.0,41,0.00,,,0.00,0,Wunderground v.1.15,2013-04-15 09:10:00,
2013-04-15 02:20:00,56.4,32.4,29.70,SW,215,1.0,23.0,40,0.00,,,0.00,0,Wunderground v.1.15,2013-04-15 09:20:00,
2013-04-15 02:30:00,56.5,31.8,29.70,South,169,1.0,23.0,39,0.00,,,0.00,0,Wunderground v.1.15,2013-04-15 09:30:00,
2013-04-15 02:40:00,56.6,31.9,29.69,SSW,199,3.0,23.0,39,0.00,,,0.00,0,Wunderground v.1.15,2013-04-15 09:40:00,
2013-04-15 02:50:00,56.8,32.1,29.69,South,185,4.0,23.0,39,0.00,,,0.00,0,Wunderground v.1.15,2013-04-15 09:50:00,
2013-04-15 03:00:00,56.6,31.9,29.69,South,174,4.0,4.0,39,0.00,,,0.00,0,Wunderground v.1.15,2013-04-15 10:00:00,
2013-04-15 03:10:00,56.7,32.0,29.69,South,171,5.0,23.0,39,0.00,,,0.00,0,Wunderground v.1.15,2013-04-15 10:10:00,
2013-04-15 03:20:00,56.6,31.9,29.69,SE,126,6.0,6.0,39,0.00,,,0.00,0,Wunderground v.1.15,2013-04-15 10:20:00,
2013-04-15 03:30:00,56.3,32.3,29.69,SSE,150,4.0,4.0,40,0.00,,,0.00,0,Wunderground v.1.15,2013-04-15 10:30:00,
2013-04-15 03:40:00,55.5,32.8,29.69,SSE,159,3.0,3.0,42,0.00,,,0.00,0,Wunderground v.1.15,2013-04-15 10:40:00,
2013-04-15 03:50:00,54.5,33.0,29.69,SSE,150,4.0,4.0,44,0.00,,,0.00,0,Wunderground v.1.15,2013-04-15 10:50:00,
2013-04-15 04:00:00,54.9,33.4,29.70,South,183,7.0,7.0,44,0.00,,,0.00,0,Wunderground v.1.15,2013-04-15 11:00:00,
2013-04-15 04:10:00,54.5,33.6,29.70,SSE,149,4.0,4.0,45,0.00,,,0.00,0,Wunderground v.1.15,2013-04-15 11:10:00,
2013-04-15 04:20:00,54.4,35.1,29.70,South,175,4.0,23.0,48,0.00,,,0.00,0,Wunderground v.1.15,2013-04-15 11:20:00,
2013-04-15 04:30:00,55.0,35.7,29.70,SSW,198,6.0,23.0,48,0.00,,,0.00,0,Wunderground v.1.15,2013-04-15 11:30:00,
2013-04-15 04:40:00,55.3,36.5,29.69,South,178,8.0,23.0,49,0.00,,,0.00,0,Wunderground v.1.15,2013-04-15 11:40:00,
2013-04-15 04:49:00,55.0,36.7,29.70,SSE,160,8.0,8.0,50,0.00,,,0.00,0,Wunderground v.1.15,2013-04-15 11:49:00,
2013-04-15 05:00:00,54.1,34.3,29.70,ESE,119,3.0,23.0,47,0.00,,,0.00,0,Wunderground v.1.15,2013-04-15 12:00:00,
2013-04-15 05:09:00,52.0,34.9,29.71,East,98,5.0,23.0,52,0.00,,,0.00,0,Wunderground v.1.15,2013-04-15 12:09:00,
2013-04-15 05:20:00,52.1,35.9,29.71,SSE,159,5.0,5.0,54,0.00,,,0.00,0,Wunderground v.1.15,2013-04-15 12:20:00,
2013-04-15 05:30:00,52.2,35.6,29.71,SSE,147,3.0,3.0,53,0.00,,,0.00,0,Wunderground v.1.15,2013-04-15 12:30:00,
2013-04-15 05:40:00,52.6,35.9,29.70,SE,141,5.0,23.0,53,0.00,,,0.00,0,Wunderground v.1.15,2013-04-15 12:40:00,
2013-04-15 05:50:00,52.4,35.8,29.71,ESE,113,6.0,6.0,53,0.00,,,0.00,0,Wunderground v.1.15,2013-04-15 12:50:00,
2013-04-15 06:00:00,51.8,35.7,29.71,SE,134,4.0,23.0,54,0.00,,,0.00,9,Wunderground v.1.15,2013-04-15 13:00:00,
2013-04-15 06:10:00,50.8,35.2,29.71,SSE,161,3.0,3.0,55,0.00,,,0.00,19,Wunderground v.1.15,2013-04-15 13:10:00,
2013-04-15 06:20:00,50.5,35.8,29.72,SE,140,2.0,4.0,57,0.00,,,0.00,40,Wunderground v.1.15,2013-04-15 13:20:00,
2013-04-15 06:29:00,51.4,36.2,29.72,ESE,113,1.0,1.0,56,0.00,,,0.00,70,Wunderground v.1.15,2013-04-15 13:29:00,
2013-04-15 06:40:00,53.0,36.8,29.72,SE,144,2.0,3.0,54,0.00,,,0.00,111,Wunderground v.1.15,2013-04-15 13:40:00,
2013-04-15 06:50:00,54.4,37.1,29.72,SE,137,3.0,3.0,52,0.00,,,0.00,153,Wunderground v.1.15,2013-04-15 13:50:00,
2013-04-15 07:00:00,56.0,36.6,29.72,SE,137,5.0,5.0,48,0.00,,,0.00,192,Wunderground v.1.15,2013-04-15 14:00:00,
2013-04-15 07:10:00,56.8,36.8,29.72,SSE,148,5.0,5.0,47,0.00,,,0.00,229,Wunderground v.1.15,2013-04-15 14:10:00,
2013-04-15 07:20:00,57.5,36.9,29.72,South,169,6.0,6.0,46,0.00,,,0.00,264,Wunderground v.1.15,2013-04-15 14:20:00,
2013-04-15 07:30:00,58.2,36.9,29.73,South,175,6.0,14.0,45,0.00,,,0.00,304,Wunderground v.1.15,2013-04-15 14:30:00,
2013-04-15 07:39:00,58.8,36.9,29.74,SE,146,6.0,14.0,44,0.00,,,0.00,339,Wunderground v.1.15,2013-04-15 14:39:00,
2013-04-15 07:50:00,59.2,36.7,29.74,South,186,7.0,14.0,43,0.00,,,0.00,376,Wunderground v.1.15,2013-04-15 14:50:00,
2013-04-15 07:59:00,59.8,36.6,29.74,South,178,6.0,6.0,42,0.00,,,0.00,413,Wunderground v.1.15,2013-04-15 14:59:00,
2013-04-15 08:09:00,60.4,36.6,29.74,South,178,6.0,10.0,41,0.00,,,0.00,450,Wunderground v.1.15,2013-04-15 15:09:00,
2013-04-15 08:19:00,61.4,36.2,29.75,SSE,167,5.0,5.0,39,0.00,,,0.00,489,Wunderground v.1.15,2013-04-15 15:19:00,
2013-04-15 08:30:00,62.8,36.8,29.74,SSE,162,3.0,3.0,38,0.00,,,0.00,526,Wunderground v.1.15,2013-04-15 15:30:00,
2013-04-15 08:40:00,63.6,36.1,29.74,South,184,5.0,5.0,36,0.00,,,0.00,561,Wunderground v.1.15,2013-04-15 15:40:00,
2013-04-15 08:50:00,64.4,35.4,29.74,South,178,6.0,10.0,34,0.00,,,0.00,591,Wunderground v.1.15,2013-04-15 15:50:00,
2013-04-15 09:00:00,65.0,35.2,29.74,South,180,7.0,11.0,33,0.00,,,0.00,629,Wunderground v.1.15,2013-04-15 16:00:00,
2013-04-15 09:10:00,65.1,35.3,29.74,SSE,154,9.0,20.0,33,0.00,,,0.00,659,Wunderground v.1.15,2013-04-15 16:10:00,
2013-04-15 09:20:00,66.2,34.7,29.74,SSW,207,8.0,20.0,31,0.00,,,0.00,689,Wunderground v.1.15,2013-04-15 16:20:00,
2013-04-15 09:29:00,66.5,34.1,29.74,SSE,157,11.0,11.0,30,0.00,,,0.00,721,Wunderground v.1.15,2013-04-15 16:29:00,
2013-04-15 09:39:00,67.4,34.0,29.74,South,184,12.0,12.0,29,0.00,,,0.00,751,Wunderground v.1.15,2013-04-15 16:39:00,
2013-04-15 09:49:00,67.6,34.2,29.74,SSW,198,13.0,20.0,29,0.00,,,0.00,772,Wunderground v.1.15,2013-04-15 16:49:00,
2013-04-15 10:00:00,68.7,33.3,29.74,South,180,12.0,23.0,27,0.00,,,0.00,798,Wunderground v.1.15,2013-04-15 17:00:00,
2013-04-15 10:10:00,69.2,32.8,29.74,SSW,207,13.0,13.0,26,0.00,,,0.00,826,Wunderground v.1.15,2013-04-15 17:10:00,
2013-04-15 10:20:00,68.9,31.6,29.74,SSW,202,16.0,16.0,25,0.00,,,0.00,849,Wunderground v.1.15,2013-04-15 17:20:00,
2013-04-15 10:39:00,70.4,31.9,29.73,SW,220,15.0,21.0,24,0.00,,,0.00,889,Wunderground v.1.15,2013-04-15 17:39:00,
2013-04-15 10:50:00,71.0,31.3,29.74,SW,219,14.0,20.0,23,0.00,,,0.00,909,Wunderground v.1.15,2013-04-15 17:50:00,
2013-04-15 11:00:00,71.3,31.6,29.74,SW,227,15.0,22.0,23,0.00,,,0.00,926,Wunderground v.1.15,2013-04-15 18:00:00,
2013-04-15 11:09:00,71.3,31.6,29.73,SSW,196,15.0,15.0,23,0.00,,,0.00,939,Wunderground v.1.15,2013-04-15 18:09:00,
2013-04-15 11:19:00,72.0,31.0,29.73,SSW,211,14.0,20.0,22,0.00,,,0.00,956,Wunderground v.1.15,2013-04-15 18:19:00,
2013-04-15 11:29:00,72.7,31.6,29.73,SSW,200,15.0,20.0,22,0.00,,,0.00,960,Wunderground v.1.15,2013-04-15 18:29:00,
2013-04-15 11:40:00,73.3,32.1,29.72,SSW,213,13.0,23.0,22,0.00,,,0.00,977,Wunderground v.1.15,2013-04-15 18:40:00,
2013-04-15 11:50:00,73.5,31.1,29.72,SW,215,16.0,17.0,21,0.00,,,0.00,979,Wunderground v.1.15,2013-04-15 18:50:00,
2013-04-15 11:59:00,73.7,31.3,29.71,SSW,200,16.0,20.0,21,0.00,,,0.00,986,Wunderground v.1.15,2013-04-15 18:59:00,
2013-04-15 12:09:00,74.5,32.0,29.71,SSW,210,15.0,15.0,21,0.00,,,0.00,993,Wunderground v.1.15,2013-04-15 19:09:00,
2013-04-15 12:19:00,74.8,32.2,29.71,SW,234,15.0,15.0,21,0.00,,,0.00,993,Wunderground v.1.15,2013-04-15 19:19:00,
2013-04-15 12:29:00,74.8,31.0,29.71,WSW,244,17.0,27.0,20,0.00,,,0.00,995,Wunderground v.1.15,2013-04-15 19:29:00,
2013-04-15 12:39:00,75.3,30.2,29.70,SW,224,17.0,27.0,19,0.00,,,0.00,990,Wunderground v.1.15,2013-04-15 19:39:00,
2013-04-15 12:59:00,75.6,30.4,29.70,SW,221,17.0,27.0,19,0.00,,,0.00,977,Wunderground v.1.15,2013-04-15 19:59:00,
2013-04-15 13:09:00,75.9,29.3,29.69,SSW,200,17.0,17.0,18,0.00,,,0.00,972,Wunderground v.1.15,2013-04-15 20:09:00,
2013-04-15 13:20:00,76.4,29.7,29.69,SW,222,17.0,27.0,18,0.00,,,0.00,954,Wunderground v.1.15,2013-04-15 20:20:00,
2013-04-15 13:30:00,76.7,30.0,29.69,SW,232,17.0,27.0,18,0.00,,,0.00,944,Wunderground v.1.15,2013-04-15 20:30:00,
2013-04-15 13:40:00,77.3,29.1,29.68,SSW,207,17.0,27.0,17,0.00,,,0.00,926,Wunderground v.1.15,2013-04-15 20:40:00,
2013-04-15 13:49:00,77.3,29.1,29.67,SW,219,19.0,19.0,17,0.00,,,0.00,918,Wunderground v.1.15,2013-04-15 20:49:00,
2013-04-15 13:59:00,77.7,27.9,29.66,South,183,19.0,27.0,16,0.00,,,0.00,900,Wunderground v.1.15,2013-04-15 20:59:00,
2013-04-15 14:09:00,77.7,26.3,29.66,SSW,209,20.0,27.0,15,0.00,,,0.00,879,Wunderground v.1.15,2013-04-15 21:09:00,
2013-04-15 14:19:00,77.8,26.4,29.66,SW,230,20.0,27.0,15,0.00,,,0.00,865,Wunderground v.1.15,2013-04-15 21:19:00,
2013-04-15 14:29:00,78.4,26.9,29.66,SW,225,18.0,18.0,15,0.00,,,0.00,842,Wunderground v.1.15,2013-04-15 21:29:00,
2013-04-15 14:39:00,78.1,26.7,29.65,SSW,202,20.0,20.0,15,0.00,,,0.00,821,Wunderground v.1.15,2013-04-15 21:39:00,
2013-04-15 14:49:00,77.9,26.5,29.65,SW,219,21.0,21.0,15,0.00,,,0.00,796,Wunderground v.1.15,2013-04-15 21:49:00,
2013-04-15 14:59:00,77.6,26.3,29.64,WSW,238,22.0,22.0,15,0.00,,,0.00,763,Wunderground v.1.15,2013-04-15 21:59:00,
2013-04-15 15:09:00,77.3,26.0,29.64,SSW,202,22.0,22.0,15,0.00,,,0.00,738,Wunderground v.1.15,2013-04-15 22:09:00,
2013-04-15 15:19:00,77.2,25.9,29.64,SSW,209,22.0,31.0,15,0.00,,,0.00,715,Wunderground v.1.15,2013-04-15 22:19:00,
2013-04-15 15:29:00,77.1,25.9,29.64,SW,225,23.0,23.0,15,0.00,,,0.00,682,Wunderground v.1.15,2013-04-15 22:29:00,
2013-04-15 15:39:00,77.1,25.9,29.64,WSW,238,21.0,23.0,15,0.00,,,0.00,645,Wunderground v.1.15,2013-04-15 22:39:00,
2013-04-15 15:49:00,76.7,25.5,29.64,WSW,239,22.0,22.0,15,0.00,,,0.00,613,Wunderground v.1.15,2013-04-15 22:49:00,
2013-04-15 15:59:00,76.5,25.4,29.64,SSW,201,22.0,22.0,15,0.00,,,0.00,582,Wunderground v.1.15,2013-04-15 22:59:00,
2013-04-15 16:09:00,76.3,25.2,29.64,SW,216,22.0,35.0,15,0.00,,,0.00,541,Wunderground v.1.15,2013-04-15 23:09:00,
2013-04-15 16:19:00,76.1,25.1,29.64,SW,221,23.0,35.0,15,0.00,,,0.00,504,Wunderground v.1.15,2013-04-15 23:19:00,
2013-04-15 16:30:00,75.6,26.2,29.64,SW,227,23.0,35.0,16,0.00,,,0.00,471,Wunderground v.1.15,2013-04-15 23:30:00,
2013-04-15 16:40:00,75.4,26.1,29.63,SW,221,23.0,23.0,16,0.00,,,0.00,427,Wunderground v.1.15,2013-04-15 23:40:00,
2013-04-15 16:50:00,75.0,25.7,29.64,SW,224,24.0,35.0,16,0.00,,,0.00,399,Wunderground v.1.15,2013-04-15 23:50:00,
2013-04-15 17:00:00,75.1,25.8,29.64,SSW,205,22.0,35.0,16,0.00,,,0.00,353,Wunderground v.1.15,2013-04-16 00:00:00,
2013-04-15 17:10:00,74.4,25.2,29.64,WSW,245,24.0,26.0,16,0.00,,,0.00,316,Wunderground v.1.15,2013-04-16 00:10:00,
2013-04-15 17:20:00,74.2,26.5,29.64,SSW,213,22.0,28.0,17,0.00,,,0.00,281,Wunderground v.1.15,2013-04-16 00:20:00,
2013-04-15 17:30:00,73.7,27.5,29.65,SW,227,22.0,25.0,18,0.00,,,0.00,239,Wunderground v.1.15,2013-04-16 00:30:00,
2013-04-15 17:40:00,73.3,27.2,29.64,WSW,241,22.0,22.0,18,0.00,,,0.00,195,Wunderground v.1.15,2013-04-16 00:40:00,
2013-04-15 17:50:00,72.7,26.7,29.65,SW,221,23.0,23.0,18,0.00,,,0.00,153,Wunderground v.1.15,2013-04-16 00:50:00,
2013-04-15 18:00:00,72.1,28.8,29.65,SSW,202,23.0,23.0,20,0.00,,,0.00,111,Wunderground v.1.15,2013-04-16 01:00:00,
2013-04-15 18:10:00,71.7,28.5,29.65,SW,227,23.0,37.0,20,0.00,,,0.00,74,Wunderground v.1.15,2013-04-16 01:10:00,
2013-04-15 18:20:00,71.1,29.2,29.65,SSW,194,23.0,23.0,21,0.00,,,0.00,40,Wunderground v.1.15,2013-04-16 01:20:00,
2013-04-15 18:30:00,70.5,28.7,29.65,SW,232,21.0,21.0,21,0.00,,,0.00,16,Wunderground v.1.15,2013-04-16 01:30:00,
2013-04-15 18:40:00,69.8,30.3,29.65,SW,218,22.0,37.0,23,0.00,,,0.00,9,Wunderground v.1.15,2013-04-16 01:40:00,
2013-04-15 18:50:00,69.4,30.0,29.65,SW,225,20.0,37.0,23,0.00,,,0.00,5,Wunderground v.1.15,2013-04-16 01:50:00,
2013-04-15 19:00:00,69.2,30.8,29.65,SW,220,21.0,21.0,24,0.00,,,0.00,0,Wunderground v.1.15,2013-04-16 02:00:00,
2013-04-15 19:10:00,68.9,30.6,29.65,SW,220,21.0,21.0,24,0.00,,,0.00,0,Wunderground v.1.15,2013-04-16 02:10:00,
2013-04-15 19:20:00,68.5,31.3,29.65,WSW,239,19.0,29.0,25,0.00,,,0.00,0,Wunderground v.1.15,2013-04-16 02:20:00,
2013-04-15 19:30:00,68.3,31.1,29.66,WSW,251,18.0,18.0,25,0.00,,,0.00,0,Wunderground v.1.15,2013-04-16 02:30:00,
2013-04-15 19:40:00,68.0,30.8,29.67,WSW,247,18.0,18.0,25,0.00,,,0.00,0,Wunderground v.1.15,2013-04-16 02:40:00,
2013-04-15 19:51:00,67.8,30.7,29.67,SW,226,19.0,21.0,25,0.00,,,0.00,0,Wunderground v.1.15,2013-04-16 02:51:00,
2013-04-15 20:00:00,67.6,31.5,29.67,SSW,209,20.0,22.0,26,0.00,,,0.00,0,Wunderground v.1.15,2013-04-16 03:00:00,
2013-04-15 20:10:00,67.3,31.2,29.69,SW,230,19.0,33.0,26,0.00,,,0.00,0,Wunderground v.1.15,2013-04-16 03:10:00,
2013-04-15 20:20:00,66.8,31.7,29.68,SW,232,19.0,33.0,27,0.00,,,0.00,0,Wunderground v.1.15,2013-04-16 03:20:00,
2013-04-15 20:30:00,66.5,32.4,29.69,SW,217,19.0,33.0,28,0.00,,,0.00,0,Wunderground v.1.15,2013-04-16 03:30:00,
2013-04-15 20:40:00,66.2,33.0,29.68,South,190,19.0,33.0,29,0.00,,,0.00,0,Wunderground v.1.15,2013-04-16 03:40:00,
2013-04-15 20:50:00,65.9,32.7,29.69,WSW,254,18.0,18.0,29,0.00,,,0.00,0,Wunderground v.1.15,2013-04-16 03:50:00,
2013-04-15 21:00:00,65.5,33.2,29.70,SW,215,16.0,33.0,30,0.00,,,0.00,0,Wunderground v.1.15,2013-04-16 04:00:00,
2013-04-15 21:10:00,65.2,33.8,29.71,SSW,198,14.0,14.0,31,0.00,,,0.00,0,Wunderground v.1.15,2013-04-16 04:10:00,
2013-04-15 21:20:00,64.5,34.0,29.72,SW,217,12.0,12.0,32,0.00,,,0.00,0,Wunderground v.1.15,2013-04-16 04:20:00,
2013-04-15 21:30:00,63.6,33.2,29.72,SSW,212,10.0,10.0,32,0.00,,,0.00,0,Wunderground v.1.15,2013-04-16 04:30:00,
2013-04-15 21:40:00,63.1,34.3,29.72,SW,231,8.0,8.0,34,0.00,,,0.00,0,Wunderground v.1.15,2013-04-16 04:40:00,
2013-04-15 21:50:00,63.1,35.0,29.73,SW,214,7.0,7.0,35,0.00,,,0.00,0,Wunderground v.1.15,2013-04-16 04:50:00,
2013-04-15 22:00:00,63.0,35.6,29.73,SW,232,6.0,11.0,36,0.00,,,0.00,0,Wunderground v.1.15,2013-04-16 05:00:00,
2013-04-15 22:10:00,63.0,36.3,29.73,SSW,211,6.0,6.0,37,0.00,,,0.00,0,Wunderground v.1.15,2013-04-16 05:10:00,
2013-04-15 22:20:00,63.1,37.1,29.73,SW,233,9.0,29.0,38,0.00,,,0.00,0,Wunderground v.1.15,2013-04-16 05:20:00,
2013-04-15 22:30:00,62.9,36.9,29.72,SSW,205,8.0,8.0,38,0.00,,,0.00,0,Wunderground v.1.15,2013-04-16 05:30:00,
2013-04-15 22:40:00,62.8,37.5,29.72,SW,217,8.0,8.0,39,0.00,,,0.00,0,Wunderground v.1.15,2013-04-16 05:40:00,
2013-04-15 22:50:00,62.4,37.1,29.72,SSW,213,8.0,8.0,39,0.00,,,0.00,0,Wunderground v.1.15,2013-04-16 05:50:00,
2013-04-15 22:59:00,61.8,37.2,29.72,SW,223,8.0,8.0,40,0.00,,,0.00,0,Wunderground v.1.15,2013-04-16 05:59:00,
2013-04-15 23:10:00,61.2,37.3,29.73,SSW,207,7.0,29.0,41,0.00,,,0.00,0,Wunderground v.1.15,2013-04-16 06:10:00,
2013-04-15 23:20:00,61.1,37.8,29.72,SW,225,4.0,29.0,42,0.00,,,0.00,0,Wunderground v.1.15,2013-04-16 06:20:00,
2013-04-15 23:30:00,60.8,38.7,29.72,SW,219,5.0,29.0,44,0.00,,,0.00,0,Wunderground v.1.15,2013-04-16 06:30:00,
2013-04-15 23:40:00,60.7,39.8,29.72,SW,228,7.0,7.0,46,0.00,,,0.00,0,Wunderground v.1.15,2013-04-16 06:40:00,
2013-04-15 23:50:00,60.9,39.4,29.72,SW,227,6.0,29.0,45,0.00,,,0.00,0,Wunderground v.1.15,2013-04-16 06:50:00,